FW5198 Weather Reports


Display with metric or nautical units.
time (UTC)temp
F
wind
direction
speed
MPH
gust
MPH
rain 1hr
in
rain 24hr
in
rain mn
in
humidity
%
barometer
mb
20260901164553 91 57 2.0 8.0 0.00 0.00 0.00 62 1020.9
20260901163053 91 105 1.0 7.0 0.00 0.00 0.00 61 1021.0
20260901161549 90 0 1.0 6.0 0.00 0.00 0.00 63 1021.0
20260901160047 90 52 3.0 8.0 0.00 0.00 0.00 65 1021.1
20260901154547 89 34 3.0 7.0 0.00 0.00 0.00 68 1021.1
20260901153054 88 45 2.0 5.0 0.00 0.00 0.00 70 1021.1
20260901151543 88 36 1.0 6.0 0.00 0.00 0.00 70 1021.1
20260901150053 87 45 3.0 6.0 0.00 0.00 0.00 71 1021.1
20260901144548 86 56 2.0 5.0 0.00 0.00 0.00 73 1021.1
20260901143048 85 56 2.0 6.0 0.00 0.00 0.00 76 1021.1
20260901141546 84 36 1.0 4.0 0.00 0.00 0.00 77 1021.0
20260901140052 82 34 1.0 5.0 0.00 0.00 0.00 81 1021.0
20260901134610 80 37 1.0 4.0 0.00 0.00 0.00 83 1021.0
20260901133055 79 25 1.0 3.0 0.00 0.00 0.00 86 1021.0
20260901131547 77 0 0.0 0.0 0.00 0.00 0.00 89 1021.0
20260901130050 75 0 0.0 0.0 0.00 0.00 0.00 92 1021.0
20260901124554 74 0 0.0 0.0 0.00 0.00 0.00 95 1020.8
20260901123047 72 0 0.0 0.0 0.00 0.00 0.00 97 1020.7
20260901121547 71 0 0.0 0.0 0.00 0.00 0.00 98 1020.5
20260901120052 71 0 0.0 0.0 0.00 0.00 0.00 98 1020.3
20260901114558 71 0 0.0 0.0 0.00 0.00 0.00 98 1020.1
20260901113047 71 0 0.0 0.0 0.00 0.00 0.00 97 1020.0
20260901111548 71 0 0.0 0.0 0.00 0.00 0.00 97 1019.8
20260901110054 71 0 0.0 0.0 0.00 0.00 0.00 97 1019.7
20260901104547 71 0 0.0 0.0 0.00 0.00 0.00 97 1019.6
20260901103103 71 0 0.0 0.0 0.00 0.00 0.00 97 1019.5
20260901101553 71 0 0.0 0.0 0.00 0.00 0.00 97 1019.5
20260901100050 71 0 0.0 0.0 0.00 0.00 0.00 97 1019.5
20260901094543 71 0 0.0 0.0 0.00 0.00 0.00 97 1019.4
20260901093050 72 0 0.0 0.0 0.00 0.00 0.00 97 1019.2
20260901091553 72 0 0.0 0.0 0.00 0.00 0.00 97 1019.2
20260901090047 72 0 0.0 0.0 0.00 0.00 0.00 97 1019.2
20260901084552 72 0 0.0 0.0 0.00 0.00 0.00 97 1019.1
20260901083049 72 0 0.0 0.0 0.00 0.00 0.00 97 1019.1
20260901081548 72 0 0.0 0.0 0.00 0.00 0.00 96 1019.0
20260901080053 72 0 0.0 0.0 0.00 0.00 0.00 97 1019.0
20260901074600 72 0 0.0 0.0 0.00 0.00 0.00 96 1018.9
20260901073047 73 0 0.0 0.0 0.00 0.00 0.00 96 1018.9
20260901071552 73 0 0.0 0.0 0.00 0.00 0.00 96 1018.9
20260901070048 73 0 0.0 0.0 0.00 0.00 0.00 96 1019.0
20260901064547 73 0 0.0 0.0 0.00 0.00 0.00 96 1018.9
20260901063049 73 0 0.0 0.0 0.00 0.00 0.00 95 1019.0
20260901061551 73 0 0.0 0.0 0.00 0.00 0.00 96 1019.2
20260901060058 74 0 0.0 0.0 0.00 0.00 0.00 95 1019.2
20260901054552 74 0 0.0 0.0 0.00 0.00 0.00 95 1019.2
20260901053052 74 0 0.0 0.0 0.00 0.00 0.00 95 1019.1
20260901051545 74 0 0.0 0.0 0.00 0.00 0.00 95 1019.2
20260901050052 74 0 0.0 0.0 0.00 0.00 0.00 94 1019.1
20260901044548 74 0 0.0 0.0 0.00 0.00 0.00 94 1019.2
20260901043050 75 0 0.0 0.0 0.00 0.00 0.00 94 1019.2
20260901041548 75 0 0.0 1.0 0.00 0.00 0.00 94 1019.2
20260901040110 76 0 0.0 0.0 0.00 0.00 0.00 94 1019.4
20260901034550 76 0 0.0 0.0 0.00 0.00 0.00 94 1019.3
20260901033048 76 0 0.0 1.0 0.00 0.00 0.00 93 1019.2
20260901031547 76 0 0.0 0.0 0.00 0.00 0.00 93 1019.0
20260901030054 77 0 0.0 1.0 0.00 0.00 0.00 93 1019.0
20260901024550 77 0 0.0 1.0 0.00 0.00 0.00 92 1018.9
20260901023047 77 0 0.0 1.0 0.00 0.00 0.00 92 1018.8
20260901021547 78 0 0.0 0.0 0.00 0.00 0.00 91 1018.6
20260901020047 78 0 0.0 0.0 0.00 0.00 0.00 91 1018.6
20260901014548 79 0 0.0 1.0 0.00 0.00 0.00 90 1018.5
20260901013107 79 0 0.0 1.0 0.00 0.00 0.00 89 1018.4
20260901011548 80 51 0.0 1.0 0.00 0.00 0.00 88 1018.3
20260901010046 80 0 0.0 0.0 0.00 0.00 0.00 86 1018.3
20260901004546 81 0 0.0 1.0 0.00 0.00 0.00 85 1018.2
20260901003051 83 0 0.0 1.0 0.00 0.00 0.00 84 1018.3
20260901001547 84 0 0.0 1.0 0.00 0.00 0.00 82 1018.2
20260901000056 86 0 0.0 1.0 0.00 0.00 0.00 79 1018.2
20260831234557 88 0 0.0 1.0 0.00 0.00 0.00 74 1018.3
20260831233050 89 51 0.0 1.0 0.00 0.00 0.00 69 1018.4
20260831231550 90 0 0.0 2.0 0.00 0.00 0.00 65 1018.4
20260831230054 92 37 1.0 3.0 0.00 0.00 0.00 62 1018.4
20260831224549 92 30 1.0 3.0 0.00 0.00 0.00 59 1018.5
20260831223049 92 20 2.0 5.0 0.00 0.00 0.00 59 1018.6
20260831221605 92 54 2.0 4.0 0.00 0.00 0.00 60 1018.6
20260831220048 92 75 2.0 5.0 0.00 0.00 0.00 59 1018.8
20260831214549 92 33 2.0 6.0 0.00 0.00 0.00 59 1018.7
20260831213049 93 29 3.0 5.0 0.00 0.00 0.00 57 1018.9
20260831211552 93 108 0.0 3.0 0.00 0.00 0.00 56 1019.1
20260831210050 92 46 2.0 7.0 0.00 0.00 0.00 56 1019.2
20260831204549 92 73 2.0 6.0 0.00 0.00 0.00 58 1019.2
20260831203126 93 77 1.0 6.0 0.00 0.00 0.00 58 1019.2
20260831201602 92 44 0.0 3.0 0.00 0.00 0.00 58 1019.3
20260831200134 92 98 2.0 5.0 0.00 0.00 0.00 58 1019.5
20260831194556 93 25 2.0 6.0 0.00 0.00 0.00 57 1019.5
20260831193049 92 0 0.0 7.0 0.00 0.00 0.00 60 1019.6
20260831191554 93 128 3.0 6.0 0.00 0.00 0.00 58 1019.8
20260831190049 92 0 1.0 6.0 0.00 0.00 0.00 60 1019.8
20260831184552 92 76 2.0 5.0 0.00 0.00 0.00 60 1020.2
20260831183047 92 37 2.0 6.0 0.00 0.00 0.00 60 1020.2
20260831181553 91 46 1.0 8.0 0.00 0.00 0.00 60 1020.4
20260831180108 91 27 2.0 9.0 0.00 0.00 0.00 62 1020.9
20260831174551 91 107 2.0 6.0 0.00 0.00 0.00 62 1021.0
20260831173051 90 77 3.0 9.0 0.00 0.00 0.00 64 1021.2
20260831171556 91 46 3.0 8.0 0.00 0.00 0.00 61 1021.3
20260831170049 90 103 2.0 7.0 0.00 0.00 0.00 64 1021.5